Location: Home
(42.5358°N, 72.7383°W)
Time: 04:26:22
(UTC-04:00)

Vanguard 1 - Pass Details

Date: 01 June 2022
Orbit: 649 x 3832 km, 34.2° (Epoch: 24 June)

Event Time Altitude Azimuth Distance (km) Brightness Sun altitude
Exits shadow 00:38:15 33° 207° (SSW) 2,887 11.9 -25.4°
Maximum altitude 00:43:34 50° 155° (SSE) 2,795 11.9 -25.4°
Drops below altitude 10° 01:01:10 10° 88° (E) 6,407 14.2 -25.3°
Sets 01:07:04 0° 84° (E) 7,730 14.8 -25.3°
